GALAXY 19 (G-19)

Last updated on Wed Oct 22 2025 00:02:46 GMT+0000 (Coordinated Universal Time)

1 33376U 08045A 25294.60279360 -.00000132 00000+0 00000+0 0 9999 2 33376 0.0221 257.3020 0002695 311.5050 301.5175 1.00272019 62513
UTC large
Height (km)
Speed (km/s)
/
Latitude / Longitude
Inclination (degrees)
Orbital Period (minutes)
Azimuth
Elevation
Range (km)
Doppler Factor

Next 0 passes for location: London (51.5072 / 0.1276)

Sorry there are no passes over London.